Location: Avon
(37.7514°N, 90.2235°W)
Time: 12:55:39
(UTC+00:00)

A-11 Canister half - Pass Details

Date: 14 November 2025
Orbit: 1526 x 1681 km, 47.3° (Epoch: 05 December)

Event Time Altitude Azimuth Distance (km) Brightness Sun altitude
Rises 04:22:46 0° 292° (WNW) 4,820 12.0 -63.5°
Reaches altitude 10° 04:26:04 10° 297° (WNW) 3,812 11.3 -63.9°
Enters shadow 04:26:11 10° 297° (WNW) 3,775 11.3 -64.0°
